ELY855 LLBG-EDDF

Flight info

Callsign ELY855
Flight time 3h 54m
Altitude 40000
Route SUVAS DCT TEZAK N128 OTHON DCT VAXOS UN128 RDS UL609 MES DCT DISOR DCT LONTA UL608 DOLEV DCT RADLY DCT SIMBA DCT AKINI T161 DEBHI DEBHI1B
Aircraft B789/H-VGDW/C

Departure

Time 2026-04-13 14:49
Airport Ben Gurion International Airport (LLBG)

Arrival

Time 2026-04-13 18:43
Airport Frankfurt Main Airport (EDDF)
Time Latitude Longitude Altitude Speed Heading
2026-04-13 14:29 31.99434 34.90083 148 ft 0 kts 84°
2026-04-13 14:32 31.99434 34.90084 148 ft 0 kts 84°
2026-04-13 14:39 31.99434 34.90083 148 ft 1 kts 84°
2026-04-13 14:39 31.99432 34.90056 148 ft 4 kts 84°
2026-04-13 14:39 31.99429 34.90026 148 ft 4 kts 84°
2026-04-13 14:40 31.99423 34.90000 148 ft 4 kts 51°
2026-04-13 14:40 31.99412 34.89990 148 ft 4 kts 356°
2026-04-13 14:40 31.99405 34.89991 148 ft 2 kts 333°
2026-04-13 14:40 31.99428 34.89978 148 ft 4 kts 333°
2026-04-13 14:41 31.99452 34.89963 148 ft 4 kts 333°
2026-04-13 14:41 31.99476 34.89950 148 ft 4 kts 340°
2026-04-13 14:41 31.99502 34.89943 148 ft 4 kts 347°
2026-04-13 14:41 31.99527 34.89936 148 ft 2 kts 346°
2026-04-13 14:42 31.99529 34.89935 148 ft 0 kts 346°
2026-04-13 14:43 31.99544 34.89930 148 ft 7 kts 346°
2026-04-13 14:43 31.99632 34.89904 149 ft 18 kts 344°
2026-04-13 14:43 31.99772 34.89829 149 ft 25 kts 333°
2026-04-13 14:44 31.99936 34.89731 149 ft 26 kts 333°
2026-04-13 14:44 32.00096 34.89634 149 ft 25 kts 333°
2026-04-13 14:44 32.00228 34.89523 149 ft 23 kts 306°
2026-04-13 14:44 32.00313 34.89360 149 ft 24 kts 301°
2026-04-13 14:45 32.00400 34.89191 148 ft 24 kts 301°
2026-04-13 14:45 32.00486 34.89026 149 ft 18 kts 302°
2026-04-13 14:45 32.00561 34.88987 148 ft 9 kts 17°
2026-04-13 14:45 32.00634 34.89030 148 ft 15 kts 28°
2026-04-13 14:46 32.00736 34.89095 149 ft 19 kts 28°
2026-04-13 14:46 32.00859 34.89175 149 ft 22 kts 29°
2026-04-13 14:46 32.00998 34.89265 149 ft 24 kts 29°
2026-04-13 14:46 32.01146 34.89360 149 ft 25 kts 27°
2026-04-13 14:47 32.01299 34.89459 149 ft 25 kts 29°
2026-04-13 14:47 32.01456 34.89561 149 ft 26 kts 28°
2026-04-13 14:47 32.01615 34.89664 149 ft 26 kts 28°
2026-04-13 14:47 32.01769 34.89762 149 ft 21 kts 25°
2026-04-13 14:48 32.01839 34.89750 148 ft 6 kts 290°
2026-04-13 14:48 32.01826 34.89617 149 ft 36 kts 259°
2026-04-13 14:48 32.01729 34.88990 149 ft 119 kts 259°
2026-04-13 14:48 32.01564 34.87908 211 ft 172 kts 259°
2026-04-13 14:49 32.01337 34.86471 871 ft 181 kts 261°
2026-04-13 14:49 32.01068 34.85051 1890 ft 176 kts 260°
2026-04-13 14:49 32.00798 34.83669 2970 ft 173 kts 258°
2026-04-13 14:49 32.00506 34.82220 3482 ft 190 kts 257°
2026-04-13 14:50 32.00171 34.80589 3724 ft 219 kts 257°
2026-04-13 14:50 31.99796 34.78771 4321 ft 235 kts 257°
2026-04-13 14:50 31.99405 34.76873 5076 ft 246 kts 257°
2026-04-13 14:50 31.99123 34.74849 5793 ft 258 kts 269°
2026-04-13 14:51 31.99566 34.72780 6566 ft 262 kts 291°
2026-04-13 14:51 32.00274 34.70790 7449 ft 266 kts 293°
2026-04-13 14:51 32.00977 34.68748 8213 ft 274 kts 292°
2026-04-13 14:51 32.01687 34.66592 8756 ft 290 kts 291°
2026-04-13 14:52 32.02413 34.64311 9380 ft 302 kts 291°
2026-04-13 14:52 32.03086 34.61941 10152 ft 309 kts 287°
2026-04-13 14:52 32.03638 34.59469 10984 ft 313 kts 285°
2026-04-13 14:52 32.04183 34.56954 11633 ft 323 kts 285°
2026-04-13 14:53 32.04753 34.54346 12109 ft 337 kts 285°
2026-04-13 14:53 32.05361 34.51597 12548 ft 353 kts 285°
2026-04-13 14:53 32.05995 34.48745 13012 ft 366 kts 285°
2026-04-13 14:53 32.06651 34.45800 13577 ft 375 kts 285°
2026-04-13 14:54 32.07317 34.42811 14245 ft 381 kts 285°
2026-04-13 14:54 32.07997 34.39760 14964 ft 386 kts 285°
2026-04-13 14:54 32.08682 34.36684 15685 ft 390 kts 285°
2026-04-13 14:54 32.09373 34.33579 16395 ft 394 kts 285°
2026-04-13 14:55 32.10071 34.30437 17134 ft 397 kts 285°
2026-04-13 14:55 32.10771 34.27276 17898 ft 400 kts 285°
2026-04-13 14:55 32.11477 34.24091 18661 ft 402 kts 285°
2026-04-13 14:55 32.12186 34.20885 19390 ft 405 kts 285°
2026-04-13 14:56 32.12901 34.17655 20087 ft 409 kts 285°
2026-04-13 14:56 32.13622 34.14390 20731 ft 414 kts 285°
2026-04-13 14:56 32.14350 34.11088 21410 ft 417 kts 285°
2026-04-13 14:56 32.15080 34.07770 22111 ft 419 kts 285°
2026-04-13 14:57 32.15857 34.04442 22788 ft 422 kts 288°
2026-04-13 14:57 32.17062 34.01285 23431 ft 424 kts 298°
2026-04-13 14:57 32.18523 33.98255 24130 ft 426 kts 300°
2026-04-13 14:58 32.21610 33.92274 25310 ft 433 kts 302°
2026-04-13 14:58 32.23285 33.89254 25912 ft 436 kts 303°
2026-04-13 14:58 32.24997 33.86281 26502 ft 438 kts 304°
2026-04-13 14:58 32.26737 33.83321 27079 ft 440 kts 304°
2026-04-13 14:59 32.28476 33.80394 27616 ft 442 kts 304°
2026-04-13 14:59 32.30273 33.77384 28128 ft 444 kts 304°
2026-04-13 14:59 32.32065 33.74390 28601 ft 447 kts 304°
2026-04-13 14:59 32.33864 33.71384 29056 ft 450 kts 304°
2026-04-13 15:00 32.35650 33.68399 29515 ft 452 kts 304°
2026-04-13 15:00 32.37467 33.65359 29997 ft 453 kts 304°
2026-04-13 15:00 32.39290 33.62309 30509 ft 454 kts 304°
2026-04-13 15:00 32.41113 33.59256 31045 ft 454 kts 304°
2026-04-13 15:01 32.42934 33.56205 31597 ft 454 kts 304°
2026-04-13 15:01 32.44779 33.53111 32163 ft 453 kts 304°
2026-04-13 15:01 32.46570 33.50107 32716 ft 452 kts 304°
2026-04-13 15:01 32.48380 33.47070 33269 ft 451 kts 304°
2026-04-13 15:02 32.50189 33.44033 33826 ft 450 kts 304°
2026-04-13 15:02 32.51988 33.41009 34372 ft 449 kts 304°
2026-04-13 15:02 32.53800 33.37956 34939 ft 447 kts 303°
2026-04-13 15:02 32.55586 33.34944 35488 ft 445 kts 303°
2026-04-13 15:03 32.57362 33.31949 36015 ft 443 kts 303°
2026-04-13 15:03 32.59127 33.28970 36529 ft 441 kts 303°
2026-04-13 15:03 32.60884 33.26002 37011 ft 439 kts 303°
2026-04-13 15:03 32.62632 33.23047 37456 ft 437 kts 303°
2026-04-13 15:04 32.64350 33.20140 37892 ft 435 kts 303°
2026-04-13 15:04 32.66081 33.17208 38300 ft 433 kts 303°
2026-04-13 15:04 32.67804 33.14288 38681 ft 431 kts 303°
2026-04-13 15:04 32.69521 33.11378 39046 ft 429 kts 303°
2026-04-13 15:05 32.71229 33.08477 39371 ft 428 kts 303°
2026-04-13 15:05 32.72934 33.05581 39703 ft 427 kts 303°
2026-04-13 15:05 32.74632 33.02698 39967 ft 426 kts 303°
2026-04-13 15:05 32.76327 32.99815 40105 ft 426 kts 303°
2026-04-13 15:06 32.78023 32.96926 40123 ft 426 kts 303°
2026-04-13 15:06 32.81406 32.91159 40136 ft 425 kts 303°
2026-04-13 15:07 32.84781 32.85399 40151 ft 425 kts 303°
2026-04-13 15:07 32.88157 32.79631 40155 ft 424 kts 303°
2026-04-13 15:08 32.91528 32.73866 40145 ft 424 kts 303°
2026-04-13 15:08 32.94897 32.68092 40158 ft 424 kts 303°
2026-04-13 15:09 32.98262 32.62314 40153 ft 425 kts 303°
2026-04-13 15:09 33.01623 32.56532 40150 ft 424 kts 303°
2026-04-13 15:10 33.04976 32.50752 40162 ft 424 kts 303°
2026-04-13 15:10 33.08331 32.44957 40150 ft 424 kts 303°
2026-04-13 15:11 33.11682 32.39166 40148 ft 424 kts 303°
2026-04-13 15:11 33.15027 32.33375 40160 ft 424 kts 303°
2026-04-13 15:12 33.18373 32.27574 40147 ft 424 kts 303°
2026-04-13 15:12 33.21719 32.21765 40150 ft 424 kts 302°
2026-04-13 15:13 33.25059 32.15959 40159 ft 424 kts 302°
2026-04-13 15:13 33.28398 32.10142 40146 ft 424 kts 302°
2026-04-13 15:14 33.31732 32.04326 40156 ft 424 kts 302°
2026-04-13 15:14 33.35067 31.98501 40156 ft 426 kts 302°
2026-04-13 15:15 33.37870 31.93594 40151 ft 432 kts 302°
2026-04-13 15:15 33.41262 31.87653 40153 ft 432 kts 303°
2026-04-13 15:16 33.45206 31.80740 40159 ft 432 kts 303°
2026-04-13 15:16 33.48042 31.75761 40151 ft 430 kts 303°
2026-04-13 15:17 33.51389 31.69875 40154 ft 427 kts 303°
2026-04-13 15:17 33.54740 31.63973 40161 ft 429 kts 303°
2026-04-13 15:18 33.58092 31.58059 40148 ft 428 kts 302°
2026-04-13 15:18 33.61436 31.52141 40160 ft 429 kts 302°
2026-04-13 15:19 33.64780 31.46218 40155 ft 429 kts 302°
2026-04-13 15:19 33.68121 31.40292 40151 ft 428 kts 302°
2026-04-13 15:20 33.71457 31.34368 40162 ft 429 kts 302°
2026-04-13 15:20 33.74796 31.28429 40150 ft 429 kts 302°
2026-04-13 15:21 33.78127 31.22496 40156 ft 428 kts 302°
2026-04-13 15:21 33.81438 31.16591 40160 ft 429 kts 302°
2026-04-13 15:22 33.84769 31.10643 40148 ft 429 kts 302°
2026-04-13 15:22 33.88097 31.04688 40160 ft 429 kts 302°
2026-04-13 15:23 33.91420 30.98731 40154 ft 429 kts 302°
2026-04-13 15:23 33.94741 30.92761 40150 ft 429 kts 302°
2026-04-13 15:24 33.98061 30.86784 40161 ft 429 kts 302°
2026-04-13 15:24 34.01374 30.80811 40149 ft 428 kts 302°
2026-04-13 15:25 34.04680 30.74843 40156 ft 428 kts 302°
2026-04-13 15:25 34.07985 30.68872 40164 ft 428 kts 302°
2026-04-13 15:26 34.11291 30.62886 40151 ft 428 kts 302°
2026-04-13 15:26 34.14587 30.56907 40161 ft 428 kts 302°
2026-04-13 15:27 34.17885 30.50912 40159 ft 429 kts 301°
2026-04-13 15:27 34.21176 30.44916 40152 ft 428 kts 301°
2026-04-13 15:28 34.24468 30.38910 40165 ft 428 kts 301°
2026-04-13 15:28 34.27756 30.32903 40154 ft 428 kts 301°
2026-04-13 15:29 34.31041 30.26893 40157 ft 428 kts 301°
2026-04-13 15:29 34.34321 30.20882 40164 ft 429 kts 301°
2026-04-13 15:30 34.37603 30.14859 40151 ft 428 kts 301°
2026-04-13 15:30 34.40879 30.08834 40162 ft 428 kts 301°
2026-04-13 15:31 34.44339 30.02956 40129 ft 432 kts 309°
2026-04-13 15:31 34.48659 29.97873 40164 ft 434 kts 314°
2026-04-13 15:32 34.53166 29.92994 40150 ft 435 kts 315°
2026-04-13 15:32 34.57790 29.88261 40145 ft 435 kts 316°
2026-04-13 15:33 34.62460 29.83585 40151 ft 435 kts 317°
2026-04-13 15:33 34.67146 29.78918 40166 ft 436 kts 317°
2026-04-13 15:34 34.74171 29.71918 40153 ft 434 kts 316°
2026-04-13 15:34 34.78807 29.67283 40164 ft 435 kts 316°
2026-04-13 15:35 34.83503 29.62584 40162 ft 435 kts 316°
2026-04-13 15:35 34.88142 29.57938 40153 ft 434 kts 316°
2026-04-13 15:36 34.92847 29.53221 40166 ft 435 kts 316°
2026-04-13 15:36 34.97512 29.48537 40161 ft 435 kts 316°
2026-04-13 15:37 35.02180 29.43842 40156 ft 434 kts 316°
2026-04-13 15:37 35.06841 29.39147 40168 ft 435 kts 316°
2026-04-13 15:38 35.11501 29.34446 40157 ft 435 kts 316°
2026-04-13 15:38 35.16161 29.29738 40161 ft 434 kts 316°
2026-04-13 15:39 35.20819 29.25025 40167 ft 435 kts 316°
2026-04-13 15:39 35.25473 29.20308 40155 ft 434 kts 316°
2026-04-13 15:40 35.30132 29.15582 40167 ft 435 kts 316°
2026-04-13 15:40 35.34792 29.10849 40160 ft 436 kts 316°
2026-04-13 15:41 35.39428 29.06130 40157 ft 436 kts 316°
2026-04-13 15:41 35.44090 29.01377 40169 ft 436 kts 316°
2026-04-13 15:42 35.48750 28.96618 40164 ft 437 kts 316°
2026-04-13 15:42 35.53415 28.91843 40168 ft 436 kts 316°
2026-04-13 15:43 35.58105 28.87035 40171 ft 436 kts 316°
2026-04-13 15:43 35.62738 28.82283 40161 ft 437 kts 316°
2026-04-13 15:44 35.67407 28.77487 40149 ft 437 kts 316°
2026-04-13 15:44 35.72063 28.72696 40153 ft 437 kts 316°
2026-04-13 15:45 35.76731 28.67881 40165 ft 438 kts 316°
2026-04-13 15:45 35.81421 28.63039 40152 ft 436 kts 316°
2026-04-13 15:46 35.86039 28.58262 40159 ft 436 kts 316°
2026-04-13 15:46 35.90688 28.53446 40159 ft 437 kts 316°
2026-04-13 15:47 35.95337 28.48623 40148 ft 437 kts 315°
2026-04-13 15:47 35.99990 28.43785 40161 ft 437 kts 315°
2026-04-13 15:48 36.04643 28.38940 40150 ft 437 kts 315°
2026-04-13 15:48 36.09282 28.34104 40148 ft 437 kts 315°
2026-04-13 15:49 36.13932 28.29248 40156 ft 437 kts 315°
2026-04-13 15:49 36.18582 28.24385 40142 ft 437 kts 315°
2026-04-13 15:50 36.23221 28.19526 40148 ft 437 kts 315°
2026-04-13 15:50 36.27855 28.14663 40148 ft 437 kts 315°
2026-04-13 15:51 36.32497 28.09785 40136 ft 437 kts 315°
2026-04-13 15:51 36.37010 28.04755 40148 ft 436 kts 313°
2026-04-13 15:52 36.41445 27.99628 40139 ft 436 kts 313°
2026-04-13 15:52 36.45885 27.94494 40141 ft 436 kts 313°
2026-04-13 15:53 36.50329 27.89354 40150 ft 436 kts 313°
2026-04-13 15:53 36.54775 27.84198 40138 ft 438 kts 313°
2026-04-13 15:54 36.59221 27.79030 40150 ft 437 kts 313°
2026-04-13 15:54 36.63669 27.73855 40148 ft 438 kts 313°
2026-04-13 15:55 36.68111 27.68680 40141 ft 437 kts 313°
2026-04-13 15:55 36.72555 27.63494 40150 ft 438 kts 313°
2026-04-13 15:56 36.76994 27.58305 40137 ft 437 kts 313°
2026-04-13 15:56 36.81431 27.53111 40146 ft 437 kts 313°
2026-04-13 15:57 36.85837 27.47943 40143 ft 438 kts 313°
2026-04-13 15:57 36.90271 27.42736 40136 ft 438 kts 313°
2026-04-13 15:58 36.92378 27.40261 40144 ft 438 kts 313°
2026-04-13 15:58 36.96819 27.35032 40146 ft 439 kts 313°
2026-04-13 15:59 37.01264 27.29790 40135 ft 439 kts 313°
2026-04-13 15:59 37.05697 27.24554 40148 ft 439 kts 313°
2026-04-13 16:00 37.09388 27.20186 40143 ft 439 kts 312°
2026-04-13 16:00 37.13823 27.14929 40136 ft 439 kts 312°
2026-04-13 16:01 37.18268 27.09647 40149 ft 440 kts 312°
2026-04-13 16:01 37.22708 27.04367 40137 ft 440 kts 312°
2026-04-13 16:02 37.27147 26.99078 40143 ft 440 kts 312°
2026-04-13 16:02 37.31587 26.93778 40147 ft 441 kts 312°
2026-04-13 16:03 37.36027 26.88468 40136 ft 440 kts 312°
2026-04-13 16:03 37.40529 26.83233 40150 ft 442 kts 314°
2026-04-13 16:04 37.45172 26.78163 40140 ft 443 kts 315°
2026-04-13 16:04 37.49843 26.73116 40142 ft 442 kts 315°
2026-04-13 16:05 37.54519 26.68053 40150 ft 443 kts 314°
2026-04-13 16:05 37.59198 26.62977 40137 ft 443 kts 314°
2026-04-13 16:06 37.63876 26.57900 40149 ft 445 kts 315°
2026-04-13 16:06 37.68566 26.52809 40146 ft 445 kts 315°
2026-04-13 16:07 37.73262 26.47705 40142 ft 445 kts 314°
2026-04-13 16:07 37.77948 26.42602 40154 ft 445 kts 315°
2026-04-13 16:08 37.82650 26.37478 40146 ft 446 kts 314°
2026-04-13 16:08 37.87340 26.32356 40151 ft 445 kts 314°
2026-04-13 16:09 37.92030 26.27213 40162 ft 446 kts 314°
2026-04-13 16:09 37.96720 26.22060 40151 ft 447 kts 314°
2026-04-13 16:10 38.01408 26.16897 40163 ft 446 kts 314°
2026-04-13 16:10 38.06095 26.11727 40168 ft 447 kts 314°
2026-04-13 16:11 38.10785 26.06544 40161 ft 446 kts 314°
2026-04-13 16:11 38.15432 26.01400 40175 ft 446 kts 314°
2026-04-13 16:12 38.20116 25.96205 40167 ft 447 kts 314°
2026-04-13 16:12 38.24823 25.91055 40169 ft 447 kts 316°
2026-04-13 16:13 38.29700 25.86111 40174 ft 449 kts 317°
2026-04-13 16:13 38.34616 25.81217 40163 ft 448 kts 317°
2026-04-13 16:14 38.39531 25.76309 40176 ft 449 kts 317°
2026-04-13 16:14 38.44450 25.71387 40168 ft 449 kts 317°
2026-04-13 16:15 38.49367 25.66464 40165 ft 449 kts 317°
2026-04-13 16:15 38.54287 25.61535 40176 ft 450 kts 317°
2026-04-13 16:16 38.59207 25.56601 40163 ft 450 kts 317°
2026-04-13 16:16 38.64124 25.51657 40170 ft 450 kts 317°
2026-04-13 16:17 38.69041 25.46703 40171 ft 450 kts 317°
2026-04-13 16:17 38.73956 25.41742 40161 ft 450 kts 317°
2026-04-13 16:18 38.78863 25.36780 40174 ft 450 kts 317°
2026-04-13 16:18 38.83777 25.31798 40167 ft 450 kts 317°
2026-04-13 16:19 38.88687 25.26812 40172 ft 450 kts 317°
2026-04-13 16:19 38.93608 25.21807 40177 ft 451 kts 317°
2026-04-13 16:20 38.98522 25.16800 40161 ft 451 kts 316°
2026-04-13 16:20 39.03431 25.11790 40168 ft 451 kts 316°
2026-04-13 16:21 39.08341 25.06770 40169 ft 451 kts 316°
2026-04-13 16:21 39.13252 25.01742 40158 ft 451 kts 316°
2026-04-13 16:22 39.18169 24.96701 40172 ft 452 kts 316°
2026-04-13 16:23 39.25543 24.89119 40158 ft 452 kts 316°
2026-04-13 16:23 39.30462 24.84046 40170 ft 453 kts 316°
2026-04-13 16:24 39.35379 24.78965 40164 ft 453 kts 316°
2026-04-13 16:24 39.40299 24.73875 40160 ft 454 kts 316°
2026-04-13 16:25 39.45224 24.68773 40171 ft 453 kts 316°
2026-04-13 16:25 39.50144 24.63662 40158 ft 454 kts 316°
2026-04-13 16:26 39.55062 24.58545 40167 ft 454 kts 316°
2026-04-13 16:26 39.59988 24.53409 40166 ft 455 kts 316°
2026-04-13 16:27 39.64911 24.48269 40157 ft 454 kts 316°
2026-04-13 16:27 39.69837 24.43114 40170 ft 455 kts 316°
2026-04-13 16:28 39.74762 24.37950 40161 ft 455 kts 316°
2026-04-13 16:28 39.79690 24.32774 40159 ft 456 kts 316°
2026-04-13 16:29 39.84616 24.27591 40169 ft 456 kts 316°
2026-04-13 16:29 39.89545 24.22394 40156 ft 456 kts 316°
2026-04-13 16:30 39.94477 24.17185 40165 ft 456 kts 316°
2026-04-13 16:30 39.99401 24.11973 40168 ft 456 kts 316°
2026-04-13 16:31 40.04324 24.06754 40157 ft 456 kts 316°
2026-04-13 16:31 40.09246 24.01524 40170 ft 456 kts 316°
2026-04-13 16:32 40.14164 23.96288 40165 ft 456 kts 316°
2026-04-13 16:32 40.19077 23.91047 40162 ft 456 kts 315°
2026-04-13 16:33 40.23995 23.85791 40173 ft 457 kts 316°
2026-04-13 16:33 40.28915 23.80526 40161 ft 457 kts 316°
2026-04-13 16:34 40.33828 23.75258 40168 ft 457 kts 316°
2026-04-13 16:34 40.38746 23.69968 40173 ft 458 kts 315°
2026-04-13 16:35 40.43675 23.64657 40161 ft 458 kts 316°
2026-04-13 16:35 40.48602 23.59343 40174 ft 458 kts 316°
2026-04-13 16:36 40.53528 23.54016 40170 ft 459 kts 316°
2026-04-13 16:36 40.58461 23.48671 40159 ft 460 kts 316°
2026-04-13 16:37 40.63362 23.43353 40173 ft 460 kts 316°
2026-04-13 16:37 40.68302 23.37981 40169 ft 460 kts 316°
2026-04-13 16:38 40.73234 23.32607 40161 ft 461 kts 316°
2026-04-13 16:38 40.78177 23.27213 40174 ft 461 kts 316°
2026-04-13 16:39 40.83116 23.21808 40165 ft 462 kts 316°
2026-04-13 16:39 40.88043 23.16401 40162 ft 462 kts 316°
2026-04-13 16:40 40.93002 23.10954 40173 ft 462 kts 316°
2026-04-13 16:40 40.97941 23.05519 40158 ft 462 kts 316°
2026-04-13 16:41 41.02892 23.00058 40159 ft 463 kts 316°
2026-04-13 16:41 41.07842 22.94585 40164 ft 463 kts 316°
2026-04-13 16:42 41.12781 22.89115 40147 ft 464 kts 316°
2026-04-13 16:42 41.17744 22.83612 40144 ft 464 kts 316°
2026-04-13 16:43 41.21855 22.79045 40150 ft 464 kts 316°
2026-04-13 16:43 41.26540 22.73202 40147 ft 461 kts 310°
2026-04-13 16:44 41.30870 22.66929 40128 ft 461 kts 308°
2026-04-13 16:44 41.35155 22.60612 40134 ft 461 kts 308°
2026-04-13 16:45 41.39464 22.54266 40133 ft 462 kts 308°
2026-04-13 16:45 41.43788 22.47914 40118 ft 462 kts 308°
2026-04-13 16:46 41.48087 22.41555 40122 ft 462 kts 308°
2026-04-13 16:46 41.52361 22.35125 40117 ft 463 kts 308°
2026-04-13 16:47 41.56626 22.28696 40105 ft 463 kts 308°
2026-04-13 16:47 41.60901 22.22242 40112 ft 464 kts 308°
2026-04-13 16:48 41.65170 22.15782 40103 ft 464 kts 308°
2026-04-13 16:48 41.69439 22.09311 40093 ft 464 kts 308°
2026-04-13 16:49 41.73686 22.02863 40084 ft 465 kts 308°
2026-04-13 16:49 41.77781 21.96631 40083 ft 465 kts 308°
2026-04-13 16:50 41.82016 21.90170 40093 ft 465 kts 308°
2026-04-13 16:50 41.86310 21.83605 40081 ft 465 kts 308°
2026-04-13 16:51 41.90520 21.77154 40076 ft 464 kts 308°
2026-04-13 16:51 41.94788 21.70600 40089 ft 465 kts 308°
2026-04-13 16:52 41.99044 21.64051 40085 ft 465 kts 307°
2026-04-13 16:52 42.03276 21.57523 40076 ft 465 kts 307°
2026-04-13 16:53 42.07550 21.50917 40088 ft 466 kts 307°
2026-04-13 16:53 42.11801 21.44331 40076 ft 466 kts 307°
2026-04-13 16:54 42.16048 21.37735 40066 ft 467 kts 307°
2026-04-13 16:54 42.20304 21.31115 40065 ft 467 kts 307°
2026-04-13 16:55 42.24555 21.24484 40051 ft 467 kts 307°
2026-04-13 16:55 42.28804 21.17841 40043 ft 468 kts 307°
2026-04-13 16:56 42.33060 21.11175 40041 ft 468 kts 307°
2026-04-13 16:56 42.37309 21.04502 40028 ft 468 kts 307°
2026-04-13 16:57 42.41552 20.97825 40032 ft 468 kts 307°
2026-04-13 16:57 42.45788 20.91144 40032 ft 469 kts 307°
2026-04-13 16:58 42.50047 20.84411 40021 ft 469 kts 307°
2026-04-13 16:58 42.54295 20.77679 40032 ft 470 kts 307°
2026-04-13 16:59 42.58538 20.70942 40018 ft 469 kts 307°
2026-04-13 16:59 42.62775 20.64195 40011 ft 470 kts 307°
2026-04-13 17:00 42.67014 20.57431 40008 ft 470 kts 307°
2026-04-13 17:00 42.71254 20.50653 39992 ft 471 kts 307°
2026-04-13 17:01 42.75463 20.43910 39982 ft 470 kts 307°
2026-04-13 17:01 42.79694 20.37115 39986 ft 471 kts 306°
2026-04-13 17:02 42.84165 20.30557 39975 ft 474 kts 311°
2026-04-13 17:02 42.88976 20.24399 39962 ft 475 kts 314°
2026-04-13 17:03 42.93884 20.18350 39961 ft 476 kts 314°
2026-04-13 17:03 42.98819 20.12298 39948 ft 477 kts 314°
2026-04-13 17:04 43.03750 20.06242 39947 ft 477 kts 314°
2026-04-13 17:04 43.08651 20.00212 39950 ft 477 kts 314°
2026-04-13 17:05 43.13640 19.94052 39937 ft 481 kts 314°
2026-04-13 17:05 43.18607 19.87908 39938 ft 481 kts 314°
2026-04-13 17:06 43.23575 19.81751 39940 ft 482 kts 314°
2026-04-13 17:06 43.28537 19.75588 39927 ft 482 kts 314°
2026-04-13 17:07 43.33481 19.69441 39933 ft 482 kts 314°
2026-04-13 17:07 43.38441 19.63254 39933 ft 482 kts 314°
2026-04-13 17:08 43.43435 19.57008 39919 ft 482 kts 314°
2026-04-13 17:08 43.48357 19.50838 39926 ft 482 kts 314°
2026-04-13 17:09 43.53345 19.44567 39924 ft 483 kts 314°
2026-04-13 17:09 43.58262 19.38368 39912 ft 483 kts 314°
2026-04-13 17:10 43.63220 19.32108 39912 ft 483 kts 314°
2026-04-13 17:10 43.68175 19.25839 39923 ft 483 kts 314°
2026-04-13 17:11 43.73143 19.19546 39915 ft 484 kts 314°
2026-04-13 17:11 43.78102 19.13246 39895 ft 484 kts 314°
2026-04-13 17:12 43.83058 19.06928 39884 ft 485 kts 314°
2026-04-13 17:12 43.88016 19.00591 39883 ft 485 kts 314°
2026-04-13 17:13 43.92976 18.94239 39880 ft 486 kts 314°
2026-04-13 17:13 43.97942 18.87865 39883 ft 487 kts 314°
2026-04-13 17:14 44.02907 18.81476 39880 ft 489 kts 314°
2026-04-13 17:14 44.07917 18.75019 39875 ft 489 kts 314°
2026-04-13 17:15 44.12899 18.68582 39884 ft 489 kts 314°
2026-04-13 17:15 44.17885 18.62119 39876 ft 490 kts 314°
2026-04-13 17:16 44.22872 18.55640 39875 ft 490 kts 314°
2026-04-13 17:16 44.27858 18.49146 39885 ft 491 kts 314°
2026-04-13 17:17 44.32845 18.42640 39873 ft 491 kts 314°
2026-04-13 17:17 44.37827 18.36125 39876 ft 490 kts 314°
2026-04-13 17:18 44.42803 18.29600 39884 ft 491 kts 314°
2026-04-13 17:18 44.47779 18.23057 39872 ft 491 kts 313°
2026-04-13 17:19 44.52746 18.16505 39884 ft 491 kts 313°
2026-04-13 17:19 44.57717 18.09934 39890 ft 491 kts 313°
2026-04-13 17:20 44.62684 18.03355 39878 ft 490 kts 313°
2026-04-13 17:20 44.67640 17.96774 39889 ft 492 kts 313°
2026-04-13 17:21 44.72623 17.90140 39889 ft 492 kts 313°
2026-04-13 17:21 44.77587 17.83517 39878 ft 492 kts 313°
2026-04-13 17:22 44.82554 17.76872 39887 ft 492 kts 314°
2026-04-13 17:22 44.87515 17.70219 39876 ft 492 kts 314°
2026-04-13 17:23 44.92468 17.63558 39879 ft 492 kts 314°
2026-04-13 17:23 44.97419 17.56885 39885 ft 492 kts 314°
2026-04-13 17:24 45.02364 17.50200 39872 ft 492 kts 314°
2026-04-13 17:24 45.07272 17.43550 39883 ft 492 kts 314°
2026-04-13 17:25 45.12211 17.36844 39880 ft 492 kts 314°
2026-04-13 17:25 45.17145 17.30128 39876 ft 492 kts 314°
2026-04-13 17:26 45.22080 17.23392 39889 ft 492 kts 314°
2026-04-13 17:26 45.27013 17.16640 39881 ft 493 kts 313°
2026-04-13 17:27 45.34405 17.06492 39895 ft 493 kts 313°
2026-04-13 17:27 45.39336 16.99700 39890 ft 493 kts 313°
2026-04-13 17:28 45.44254 16.92908 39888 ft 493 kts 313°
2026-04-13 17:28 45.49176 16.86095 39903 ft 494 kts 313°
2026-04-13 17:29 45.53274 16.80409 39896 ft 494 kts 313°
2026-04-13 17:29 45.58186 16.73577 39893 ft 494 kts 313°
2026-04-13 17:30 45.63108 16.66713 39907 ft 495 kts 313°
2026-04-13 17:30 45.68030 16.59831 39901 ft 494 kts 314°
2026-04-13 17:31 45.72945 16.52942 39900 ft 495 kts 314°
2026-04-13 17:31 45.77861 16.46034 39914 ft 496 kts 314°
2026-04-13 17:32 45.82779 16.39103 39905 ft 495 kts 314°
2026-04-13 17:32 45.87683 16.32176 39904 ft 495 kts 314°
2026-04-13 17:33 45.92594 16.25219 39916 ft 496 kts 314°
2026-04-13 17:33 45.97504 16.18246 39916 ft 496 kts 314°
2026-04-13 17:34 46.04877 16.07741 39926 ft 496 kts 313°
2026-04-13 17:35 46.09724 16.00811 39928 ft 496 kts 313°
2026-04-13 17:35 46.14650 15.93751 39918 ft 496 kts 313°
2026-04-13 17:36 46.19512 15.86763 39935 ft 496 kts 313°
2026-04-13 17:36 46.24429 15.79678 39947 ft 496 kts 313°
2026-04-13 17:37 46.29276 15.72674 39949 ft 496 kts 313°
2026-04-13 17:37 46.34149 15.65613 39959 ft 496 kts 313°
2026-04-13 17:38 46.39024 15.58530 39967 ft 496 kts 313°
2026-04-13 17:38 46.43895 15.51434 39956 ft 496 kts 313°
2026-04-13 17:39 46.48754 15.44338 39963 ft 496 kts 313°
2026-04-13 17:39 46.53619 15.37215 39966 ft 496 kts 313°
2026-04-13 17:40 46.58459 15.30108 39953 ft 496 kts 313°
2026-04-13 17:40 46.63325 15.22953 39962 ft 496 kts 313°
2026-04-13 17:41 46.68344 15.16054 39961 ft 498 kts 316°
2026-04-13 17:41 46.73467 15.09238 39951 ft 498 kts 316°
2026-04-13 17:42 46.78585 15.02428 39966 ft 498 kts 316°
2026-04-13 17:42 46.83695 14.95596 39957 ft 498 kts 316°
2026-04-13 17:43 46.88800 14.88746 39954 ft 498 kts 316°
2026-04-13 17:43 46.93891 14.81894 39966 ft 498 kts 316°
2026-04-13 17:44 46.98991 14.75012 39956 ft 498 kts 316°
2026-04-13 17:44 47.04084 14.68120 39958 ft 498 kts 315°
2026-04-13 17:45 47.09170 14.61219 39969 ft 498 kts 315°
2026-04-13 17:45 47.14252 14.54305 39957 ft 498 kts 315°
2026-04-13 17:46 47.19334 14.47372 39961 ft 498 kts 315°
2026-04-13 17:46 47.24406 14.40433 39964 ft 498 kts 315°
2026-04-13 17:47 47.29480 14.33466 39949 ft 498 kts 315°
2026-04-13 17:47 47.34537 14.26505 39954 ft 498 kts 315°
2026-04-13 17:48 47.39604 14.19515 39949 ft 498 kts 315°
2026-04-13 17:48 47.44661 14.12518 39930 ft 498 kts 315°
2026-04-13 17:49 47.49714 14.05508 39913 ft 498 kts 315°
2026-04-13 17:49 47.54760 13.98490 39899 ft 498 kts 315°
2026-04-13 17:50 47.59809 13.91448 39891 ft 498 kts 315°
2026-04-13 17:50 47.64819 13.84450 39887 ft 498 kts 315°
2026-04-13 17:51 47.69890 13.77344 39882 ft 498 kts 315°
2026-04-13 17:51 47.74893 13.70311 39882 ft 498 kts 315°
2026-04-13 17:52 47.79954 13.63173 39869 ft 498 kts 315°
2026-04-13 17:52 47.84975 13.56072 39867 ft 498 kts 315°
2026-04-13 17:53 47.89149 13.50153 39866 ft 498 kts 315°
2026-04-13 17:53 47.95018 13.41808 39856 ft 499 kts 315°
2026-04-13 17:54 48.00028 13.34661 39865 ft 499 kts 315°
2026-04-13 17:54 48.05038 13.27489 39857 ft 499 kts 314°
2026-04-13 17:55 48.10006 13.20354 39856 ft 498 kts 314°
2026-04-13 17:55 48.15037 13.13115 39867 ft 499 kts 314°
2026-04-13 17:56 48.20014 13.05940 39855 ft 500 kts 314°
2026-04-13 17:56 48.24866 12.98512 39865 ft 498 kts 310°
2026-04-13 17:57 48.29478 12.90740 39860 ft 499 kts 309°
2026-04-13 17:57 48.34086 12.82873 39859 ft 499 kts 309°
2026-04-13 17:58 48.38680 12.75038 39873 ft 499 kts 309°
2026-04-13 17:58 48.43240 12.67254 39863 ft 499 kts 309°
2026-04-13 17:59 48.47826 12.59407 39869 ft 499 kts 309°
2026-04-13 17:59 48.52360 12.51486 39854 ft 498 kts 304°
2026-04-13 17:59 48.54124 12.47032 39837 ft 493 kts 293°
2026-04-13 18:00 48.55423 12.42247 39897 ft 492 kts 288°
2026-04-13 18:00 48.57887 12.32592 39872 ft 493 kts 289°
2026-04-13 18:01 48.60615 12.23097 39871 ft 493 kts 292°
2026-04-13 18:01 48.63421 12.13922 39882 ft 494 kts 292°
2026-04-13 18:02 48.66401 12.04306 39872 ft 494 kts 292°
2026-04-13 18:02 48.69300 11.94901 39874 ft 494 kts 292°
2026-04-13 18:03 48.72196 11.85447 39881 ft 494 kts 292°
2026-04-13 18:03 48.75083 11.75996 39868 ft 494 kts 292°
2026-04-13 18:04 48.77963 11.66533 39880 ft 494 kts 292°
2026-04-13 18:04 48.80833 11.57066 39716 ft 494 kts 292°
2026-04-13 18:04 48.82267 11.52320 39138 ft 493 kts 292°
2026-04-13 18:05 48.83685 11.47622 38546 ft 486 kts 291°
2026-04-13 18:05 48.85063 11.43052 37952 ft 480 kts 291°
2026-04-13 18:05 48.86463 11.38394 37356 ft 477 kts 291°
2026-04-13 18:05 48.87819 11.33871 36780 ft 478 kts 291°
2026-04-13 18:06 48.89216 11.29196 36185 ft 483 kts 291°
2026-04-13 18:06 48.90612 11.24519 35586 ft 488 kts 291°
2026-04-13 18:06 48.92013 11.19818 34979 ft 487 kts 291°
2026-04-13 18:06 48.93411 11.15144 34369 ft 482 kts 292°
2026-04-13 18:07 48.95091 11.10752 33665 ft 480 kts 301°
2026-04-13 18:07 48.97053 11.06702 33069 ft 472 kts 305°
2026-04-13 18:07 48.99089 11.02830 32509 ft 466 kts 307°
2026-04-13 18:07 49.01218 10.99166 31976 ft 464 kts 311°
2026-04-13 18:08 49.03481 10.95618 31440 ft 462 kts 313°
2026-04-13 18:08 49.05756 10.92260 30913 ft 459 kts 315°
2026-04-13 18:08 49.08076 10.88941 30381 ft 454 kts 315°
2026-04-13 18:08 49.10370 10.85694 29860 ft 449 kts 316°
2026-04-13 18:09 49.12656 10.82467 29342 ft 444 kts 316°
2026-04-13 18:09 49.14914 10.79275 28832 ft 441 kts 315°
2026-04-13 18:09 49.17155 10.76101 28326 ft 437 kts 315°
2026-04-13 18:09 49.19361 10.72944 27825 ft 433 kts 314°
2026-04-13 18:10 49.21488 10.69708 27327 ft 429 kts 313°
2026-04-13 18:10 49.23557 10.66460 26831 ft 425 kts 312°
2026-04-13 18:10 49.25606 10.63216 26339 ft 421 kts 312°
2026-04-13 18:10 49.27634 10.60003 25853 ft 420 kts 312°
2026-04-13 18:11 49.29669 10.56779 25370 ft 423 kts 312°
2026-04-13 18:11 49.31714 10.53541 24881 ft 424 kts 311°
2026-04-13 18:11 49.33766 10.50293 24384 ft 422 kts 311°
2026-04-13 18:11 49.35737 10.46997 23795 ft 417 kts 307°
2026-04-13 18:12 49.37468 10.43545 23337 ft 406 kts 303°
2026-04-13 18:12 49.39118 10.40016 23038 ft 401 kts 302°
2026-04-13 18:12 49.40717 10.36519 22856 ft 401 kts 302°
2026-04-13 18:12 49.42314 10.33004 22724 ft 403 kts 302°
2026-04-13 18:13 49.43915 10.29477 22620 ft 403 kts 302°
2026-04-13 18:13 49.45518 10.25946 22536 ft 402 kts 302°
2026-04-13 18:13 49.47117 10.22423 22464 ft 401 kts 302°
2026-04-13 18:13 49.48714 10.18903 22392 ft 401 kts 302°
2026-04-13 18:14 49.49770 10.16572 22343 ft 401 kts 302°
2026-04-13 18:14 49.51360 10.13060 22270 ft 400 kts 302°
2026-04-13 18:14 49.52944 10.09557 22197 ft 399 kts 302°
2026-04-13 18:14 49.54530 10.06048 22121 ft 398 kts 302°
2026-04-13 18:15 49.56111 10.02551 21950 ft 399 kts 302°
2026-04-13 18:15 49.57691 9.99048 21673 ft 397 kts 302°
2026-04-13 18:15 49.59260 9.95563 21335 ft 395 kts 302°
2026-04-13 18:15 49.60822 9.92082 20808 ft 394 kts 302°
2026-04-13 18:16 49.62365 9.88640 20147 ft 388 kts 302°
2026-04-13 18:16 49.63893 9.85231 19446 ft 384 kts 302°
2026-04-13 18:16 49.65399 9.81861 18722 ft 381 kts 302°
2026-04-13 18:16 49.66900 9.78501 17983 ft 378 kts 302°
2026-04-13 18:17 49.68380 9.75183 17244 ft 376 kts 302°
2026-04-13 18:17 49.69865 9.71850 16496 ft 374 kts 302°
2026-04-13 18:17 49.71334 9.68551 15753 ft 373 kts 302°
2026-04-13 18:17 49.72787 9.65281 15014 ft 371 kts 302°
2026-04-13 18:18 49.74248 9.61989 14265 ft 369 kts 302°
2026-04-13 18:18 49.75705 9.58700 13592 ft 366 kts 302°
2026-04-13 18:18 49.77125 9.55489 13050 ft 359 kts 302°
2026-04-13 18:18 49.78521 9.52332 12668 ft 349 kts 302°
2026-04-13 18:19 49.79863 9.49299 12397 ft 337 kts 302°
2026-04-13 18:19 49.81165 9.46349 12117 ft 327 kts 302°
2026-04-13 18:19 49.82425 9.43486 11829 ft 318 kts 302°
2026-04-13 18:19 49.83655 9.40691 11557 ft 310 kts 302°
2026-04-13 18:20 49.84873 9.37924 11273 ft 303 kts 302°
2026-04-13 18:20 49.86033 9.35221 10932 ft 299 kts 299°
2026-04-13 18:20 49.86799 9.32263 10548 ft 295 kts 285°
2026-04-13 18:20 49.87369 9.29223 10191 ft 292 kts 283°
2026-04-13 18:21 49.87916 9.26208 9814 ft 291 kts 284°
2026-04-13 18:21 49.88472 9.23192 9435 ft 289 kts 284°
2026-04-13 18:21 49.89033 9.20202 9057 ft 288 kts 285°
2026-04-13 18:21 49.89595 9.17232 8681 ft 287 kts 285°
2026-04-13 18:22 49.90159 9.14265 8304 ft 286 kts 285°
2026-04-13 18:22 49.90720 9.11314 7928 ft 284 kts 285°
2026-04-13 18:22 49.91278 9.08379 7550 ft 283 kts 285°
2026-04-13 18:22 49.91831 9.05475 7237 ft 279 kts 285°
2026-04-13 18:23 49.92372 9.02617 7067 ft 271 kts 285°
2026-04-13 18:23 49.92897 8.99841 7002 ft 266 kts 285°
2026-04-13 18:23 49.93353 8.97417 6733 ft 274 kts 286°
2026-04-13 18:23 49.93915 8.94571 6345 ft 277 kts 289°
2026-04-13 18:24 49.94960 8.92081 5876 ft 279 kts 314°
2026-04-13 18:24 49.96617 8.90588 5505 ft 276 kts 340°
2026-04-13 18:24 49.98517 8.90394 5156 ft 274 kts
2026-04-13 18:24 50.00379 8.90861 4844 ft 270 kts
2026-04-13 18:25 50.02208 8.91543 4412 ft 272 kts 20°
2026-04-13 18:25 50.03688 8.93306 4128 ft 268 kts 48°
2026-04-13 18:25 50.04456 8.95866 4056 ft 257 kts 72°
2026-04-13 18:25 50.04627 8.98579 4048 ft 247 kts 88°
2026-04-13 18:26 50.04899 9.01144 3977 ft 239 kts 70°
2026-04-13 18:26 50.05540 9.03466 4028 ft 230 kts 65°
2026-04-13 18:26 50.06144 9.05725 4006 ft 229 kts 66°
2026-04-13 18:26 50.06737 9.08065 3994 ft 230 kts 67°
2026-04-13 18:27 50.07307 9.10400 3985 ft 232 kts 68°
2026-04-13 18:27 50.07871 9.12756 3981 ft 232 kts 68°
2026-04-13 18:27 50.08609 9.14935 3929 ft 232 kts 51°
2026-04-13 18:27 50.09900 9.16399 3941 ft 226 kts 24°
2026-04-13 18:28 50.11410 9.16745 3963 ft 223 kts 356°
2026-04-13 18:28 50.12872 9.15950 3978 ft 226 kts 329°
2026-04-13 18:28 50.13947 9.14151 3982 ft 226 kts 302°
2026-04-13 18:28 50.14353 9.11802 3991 ft 227 kts 275°
2026-04-13 18:29 50.14127 9.09375 4054 ft 227 kts 259°
2026-04-13 18:29 50.13820 9.06949 4041 ft 230 kts 260°
2026-04-13 18:29 50.13507 9.04520 4019 ft 230 kts 259°
2026-04-13 18:29 50.13115 9.02093 4002 ft 227 kts 256°
2026-04-13 18:30 50.12722 8.99736 3990 ft 227 kts 257°
2026-04-13 18:30 50.12305 8.97330 3988 ft 227 kts 256°
2026-04-13 18:30 50.11892 8.94997 3993 ft 226 kts 256°
2026-04-13 18:30 50.11521 8.92626 3974 ft 216 kts 259°
2026-04-13 18:31 50.11230 8.90420 3978 ft 206 kts 259°
2026-04-13 18:31 50.10866 8.88286 3986 ft 198 kts 256°
2026-04-13 18:31 50.10342 8.86358 3936 ft 197 kts 240°
2026-04-13 18:31 50.09283 8.85032 3938 ft 194 kts 208°
2026-04-13 18:32 50.07958 8.84753 3968 ft 195 kts 177°
2026-04-13 18:32 50.06693 8.85493 3996 ft 197 kts 149°
2026-04-13 18:32 50.05809 8.87065 3983 ft 199 kts 119°
2026-04-13 18:32 50.05419 8.89165 4068 ft 202 kts 102°
2026-04-13 18:33 50.05086 8.91363 4035 ft 215 kts 102°
2026-04-13 18:33 50.04726 8.93659 4038 ft 229 kts 103°
2026-04-13 18:33 50.04346 8.96121 4033 ft 237 kts 103°
2026-04-13 18:34 50.03810 9.01147 3935 ft 235 kts 84°
2026-04-13 18:34 50.04379 9.03464 3942 ft 229 kts 57°
2026-04-13 18:34 50.05471 9.05225 4027 ft 227 kts 41°
2026-04-13 18:34 50.06626 9.06947 4023 ft 232 kts 43°
2026-04-13 18:35 50.07798 9.08680 3994 ft 232 kts 39°
2026-04-13 18:35 50.09231 9.09740 3932 ft 227 kts 13°
2026-04-13 18:35 50.10779 9.09634 3951 ft 222 kts 346°
2026-04-13 18:35 50.12098 9.08420 3975 ft 224 kts 319°
2026-04-13 18:36 50.12912 9.06367 3986 ft 226 kts 291°
2026-04-13 18:36 50.13236 9.03978 4059 ft 227 kts 282°
2026-04-13 18:36 50.13555 9.01618 4043 ft 229 kts 283°
2026-04-13 18:36 50.13598 8.99082 3960 ft 230 kts 263°
2026-04-13 18:37 50.13329 8.97498 4009 ft 226 kts 255°
2026-04-13 18:37 50.12602 8.94451 4008 ft 228 kts 249°
2026-04-13 18:37 50.12014 8.92122 3993 ft 229 kts 250°
2026-04-13 18:37 50.11449 8.89853 3972 ft 224 kts 250°
2026-04-13 18:38 50.10909 8.87653 3971 ft 211 kts 251°
2026-04-13 18:38 50.10411 8.85579 3958 ft 195 kts 251°
2026-04-13 18:38 50.09955 8.83622 3774 ft 194 kts 252°
2026-04-13 18:38 50.09497 8.81654 3501 ft 193 kts 252°
2026-04-13 18:39 50.09040 8.79701 3212 ft 191 kts 252°
2026-04-13 18:39 50.08583 8.77780 2944 ft 188 kts 252°
2026-04-13 18:39 50.08119 8.75859 2693 ft 186 kts 252°
2026-04-13 18:39 50.07669 8.73989 2458 ft 182 kts 251°
2026-04-13 18:40 50.07235 8.72191 2222 ft 176 kts 252°
2026-04-13 18:40 50.06824 8.70481 1989 ft 165 kts 251°
2026-04-13 18:40 50.06430 8.68815 1767 ft 160 kts 250°
2026-04-13 18:40 50.06059 8.67256 1562 ft 148 kts 250°
2026-04-13 18:41 50.05710 8.65793 1365 ft 141 kts 250°
2026-04-13 18:41 50.05372 8.64374 1181 ft 138 kts 250°
2026-04-13 18:41 50.05042 8.62987 990 ft 137 kts 250°
2026-04-13 18:41 50.04714 8.61607 804 ft 136 kts 250°
2026-04-13 18:42 50.04382 8.60230 618 ft 135 kts 250°
2026-04-13 18:42 50.04058 8.58868 429 ft 134 kts 250°
2026-04-13 18:42 50.03751 8.57587 378 ft 116 kts 249°
2026-04-13 18:42 50.03539 8.56701 378 ft 60 kts 250°
2026-04-13 18:43 50.03407 8.56149 378 ft 53 kts 250°
2026-04-13 18:43 50.03302 8.55713 378 ft 36 kts 243°
2026-04-13 18:43 50.03176 8.55490 378 ft 20 kts 219°
2026-04-13 18:43 50.03102 8.55439 378 ft 6 kts 162°
2026-04-13 18:44 50.03095 8.55444 378 ft 0 kts 148°
2026-04-13 18:44 50.03090 8.55450 378 ft 6 kts 148°
2026-04-13 18:44 50.03072 8.55551 378 ft 5 kts 73°
2026-04-13 18:45 50.03075 8.55564 378 ft 0 kts 69°
2026-04-13 18:45 50.03080 8.55593 378 ft 6 kts 86°
2026-04-13 18:45 50.03103 8.55691 378 ft 18 kts 61°
2026-04-13 18:46 50.03157 8.55902 378 ft 20 kts 70°
2026-04-13 18:46 50.03208 8.56121 378 ft 21 kts 70°
2026-04-13 18:46 50.03255 8.56313 378 ft 21 kts 69°
2026-04-13 18:46 50.03295 8.56483 378 ft 13 kts 70°
2026-04-13 18:47 50.03320 8.56586 378 ft 7 kts 70°
2026-04-13 18:47 50.03327 8.56618 378 ft 0 kts 70°
2026-04-13 18:47 50.03328 8.56618 378 ft 0 kts 70°
2026-04-13 18:48 50.03328 8.56619 378 ft 0 kts 70°
2026-04-13 18:49 50.03328 8.56620 378 ft 0 kts 70°
2026-04-13 18:51 50.03328 8.56621 378 ft 0 kts 70°
2026-04-13 18:51 50.03330 8.56628 378 ft 0 kts 70°
2026-04-13 18:51 50.03332 8.56636 378 ft 4 kts 70°
2026-04-13 18:52 50.03357 8.56741 378 ft 16 kts 69°
2026-04-13 18:52 50.03404 8.56939 378 ft 18 kts 69°
2026-04-13 18:52 50.03458 8.57164 378 ft 26 kts 70°
2026-04-13 18:52 50.03501 8.57344 378 ft 6 kts 70°
2026-04-13 18:53 50.03523 8.57437 378 ft 8 kts 70°
2026-04-13 18:53 50.03536 8.57491 378 ft 0 kts 70°
2026-04-13 18:53 50.03540 8.57507 378 ft 0 kts 70°
2026-04-13 18:53 50.03548 8.57542 378 ft 9 kts 69°
2026-04-13 18:54 50.03583 8.57690 378 ft 19 kts 69°
2026-04-13 18:54 50.03637 8.57912 378 ft 19 kts 69°
2026-04-13 18:54 50.03634 8.58082 378 ft 16 kts 146°
2026-04-13 18:54 50.03522 8.58098 378 ft 16 kts 162°
2026-04-13 18:55 50.03411 8.58161 378 ft 18 kts 160°
2026-04-13 18:55 50.03346 8.58243 378 ft 13 kts 120°
2026-04-13 18:55 50.03317 8.58333 378 ft 7 kts 114°
2026-04-13 18:55 50.03297 8.58401 378 ft 5 kts 114°
2026-04-13 18:56 50.03292 8.58420 378 ft 0 kts 114°